Flag for Kazakhstan Weather past 2 weeks in Shymkent, Kazakhstan

Now
93 °F

Sunny.


Feels Like: 90 °F
Forecast: 79 / 104 °F
Wind: 3 mph from Southeast

Location: Shymkent Airport

Current Time: Jul 2, 2015 at 10:34:53 AM

Latest Report: Jul 2, 2015 at 9:30 AM


Visibility: 10 mi

Pressure: 29.83 "Hg

Humidity: 21%

Dew point: 48 °F

Location of ShymkentLocation

Historic Weather in Shymkent — Graph

°F

Shymkent temperature yesterday

Maximum temperature yesterday: 104 °F (at 2:00 PM)
Minimum temperature yesterday: 68 °F (at 6:00 AM)
Average temperature yesterday: 89 °F

Past Weeks' High & Low Weather Summary

 TemperatureHumidityPressure
High104 °F (Jun 30, 3:30 PM)73% (Jun 25, 3:00 AM)29.83 "Hg (Jun 25, 3:00 AM)
Low64 °F (Jun 25, 3:00 AM)7% (Jul 1, 2:00 PM)29.50 "Hg (Jun 23, 5:30 PM)
Average85 °F29%29.65 "Hg
* Reported Jun 17 9:00 AM — Jul 2 9:30 AM, Shymkent, Weather by CustomWeather, © 2015

Note: Actual official high and low records may vary slightly from our data, if they occured in-between our weather recording intervals... More about our weather records

Advertising

Shymkent weather history for previous 24 hours

 ConditionsComfort  
Time TempWeatherWind HumidityBarometerVisibility
9:30 AM
Thu, Jul 2
93 °FSunny.3 mph21%29.83 "Hg10 mi
9:00 AM90 °FSunny.6 mph24%29.83 "Hg10 mi
8:30 AM86 °FSunny.8 mph27%29.83 "Hg10 mi
8:00 AM82 °FSunny.8 mph30%29.83 "Hg10 mi
7:30 AM79 °FClear.3 mph32%29.83 "Hg5 mi
7:00 AM75 °FClear.3 mph36%29.83 "Hg5 mi
6:30 AM73 °FClear.3 mph38%29.83 "Hg5 mi
6:00 AM72 °FClear.3 mph36%29.80 "Hg5 mi
5:30 AM72 °FClear.6 mph36%29.80 "Hg5 mi
5:00 AM72 °FClear.3 mph38%29.80 "Hg5 mi
4:30 AM72 °FClear.3 mph38%29.80 "Hg5 mi
3:30 AM79 °FClear.8 mph26%29.80 "Hg5 mi
3:00 AM75 °FClear.6 mph31%29.80 "Hg5 mi
2:30 AM75 °FClear.1 mph34%29.80 "Hg4 mi
2:00 AM73 °FClear.No wind38%29.80 "Hg4 mi
1:30 AM77 °FClear.1 mph30%29.80 "Hg4 mi
1:00 AM79 °FClear.1 mph30%29.80 "Hg4 mi
12:30 AM79 °FClear.No wind28%29.80 "Hg4 mi
12:00 AM79 °FClear.No wind28%29.80 "Hg4 mi
11:30 PM
Wed, Jul 1
82 °FClear.3 mph26%29.80 "Hg4 mi
11:00 PM84 °FClear.8 mph23%29.80 "Hg4 mi
10:30 PM82 °FClear.3 mph28%29.80 "Hg4 mi
10:00 PM91 °FClear.No wind17%29.77 "Hg5 mi
9:30 PM91 °FClear.3 mph18%29.77 "Hg10 mi
9:00 PM95 °FSunny.3 mph14%29.77 "Hg10 mi
8:30 PM97 °FSunny.3 mph13%29.77 "Hg10 mi
8:00 PM99 °FPassing clouds.3 mph11%29.77 "HgN/A
7:30 PM100 °FPassing clouds.3 mph10%29.77 "HgN/A
7:00 PM102 °FSunny.6 mph10%29.74 "Hg10 mi
6:30 PM102 °FSunny.13 mph10%29.74 "Hg10 mi
6:00 PM102 °FSunny.13 mph9%29.77 "Hg10 mi
5:30 PM104 °FSunny.13 mph9%29.77 "Hg10 mi
5:00 PM104 °FSunny.13 mph9%29.77 "Hg10 mi
4:30 PM104 °FSunny.13 mph10%29.77 "Hg10 mi
4:00 PM104 °FSunny.13 mph9%29.77 "Hg10 mi
3:30 PM104 °FSunny.6 mph8%29.77 "Hg10 mi
3:00 PM104 °FSunny.15 mph8%29.77 "Hg10 mi
2:30 PM104 °FSunny.15 mph7%29.77 "Hg10 mi
2:00 PM104 °FSunny.10 mph7%29.77 "Hg10 mi
1:30 PM102 °FSunny.10 mph11%29.80 "Hg10 mi
1:00 PM102 °FSunny.13 mph10%29.80 "Hg10 mi
12:30 PM100 °FSunny.13 mph13%29.80 "Hg10 mi
12:00 PM99 °FSunny.10 mph14%29.80 "Hg10 mi
11:30 AM99 °FSunny.10 mph15%29.80 "Hg10 mi
11:00 AM95 °FPassing clouds.6 mph19%29.80 "HgN/A
10:30 AM95 °FPassing clouds.6 mph19%29.80 "HgN/A
Weather by CustomWeather, © 2015

See weather overviewHow to use our weather pages